EHI
0 0 1 1 1 0 0 0 0 0 0 0 0 0 0 0 0 0 4 17 33 36 32 31 32 29 24 18 11 5 2 1 1 0 0 0 0 0 0 0 0 0 0 0 0 0 0 0 0
0 0 1 1 0 0 0 0 0 0 0 0 0 0 0 0 0 1 6 20 33 34 29 29 32 32 27 19 11 6 3 2 2 1 0 0 0 0 0 0 0 0 0 0 0 0 0 0 0
0 1 1 0 0 0 0 0 0 0 0 0 0 0 0 0 0 2 10 23 31 30 26 29 32 32 27 20 13 7 4 4 4 3 1 1 1 1 0 0 0 0 0 0 0 0 0 0 0
1 1 0 0 0 0 0 0 0 0 0 0 0 0 1 1 2 5 14 24 29 28 28 30 32 29 24 19 14 9 5 4 4 3 2 2 1 1 0 0 0 0 0 0 0 0 0 0 0
1 1 0 0 0 0 0 0 0 0 0 0 0 0 1 2 4 9 15 23 28 30 30 30 30 27 21 17 14 9 5 3 3 3 2 1 1 0 0 1 0 0 0 0 0 0 0 0 0
1 0 0 0 0 0 0 0 0 0 0 0 0 0 1 1 4 8 15 22 29 33 30 28 28 26 20 15 12 8 5 3 3 2 1 0 0 0 0 0 0 0 0 0 0 0 0 0 0
1 0 0 0 0 0 0 0 0 0 0 0 0 0 0 0 2 8 14 22 28 30 28 25 23 21 17 13 10 6 3 2 2 1 1 0 0 1 0 0 0 0 0 0 0 0 0 0 0
0 0 0 0 0 0 0 0 0 0 0 0 0 0 1 2 4 10 16 23 27 26 22 19 17 15 13 11 7 3 1 1 1 0 0 0 0 0 0 0 0 0 0 0 0 0 0 0 0
0 0 0 0 0 0 0 0 0 0 0 1 2 2 4 6 10 14 19 24 24 21 17 14 13 12 9 7 4 2 0 0 0 0 0 0 0 0 0 0 0 0 0 0 0 0 0 0 0
0 0 0 0 0 0 0 0 0 0 0 1 3 4 6 10 15 18 20 21 19 16 14 12 11 10 8 5 4 2 1 0 0 0 0 0 0 0 0 0 0 0 0 0 0 0 0 0 0
0 0 0 0 0 0 0 0 0 0 0 1 2 3 5 8 14 18 18 17 16 14 12 9 8 8 8 7 6 5 2 1 0 0 0 0 0 0 0 0 0 0 0 0 0 0 0 0 0
0 0 0 0 0 0 0 0 0 0 0 0 1 1 2 5 9 12 13 14 14 14 12 9 9 9 10 10 8 6 3 1 0 0 0 0 0 1 0 0 0 0 0 0 0 0 0 0 0
0 0 0 0 0 0 0 0 0 0 0 0 1 1 1 2 4 5 6 9 12 14 14 13 13 14 14 12 10 7 4 2 1 0 0 0 0 0 0 0 0 0 0 0 0 0 0 0 0
0 0 0 0 0 0 0 0 0 0 0 0 1 1 0 1 2 2 2 5 9 13 15 16 17 19 17 14 10 7 5 2 1 0 0 0 0 0 0 0 0 0 0 0 0 0 0 0 0
0 0 0 0 0 0 0 0 0 0 0 0 0 0 0 0 1 1 2 3 7 10 13 16 18 18 16 12 8 7 5 2 0 0 0 0 0 0 0 0 0 0 0 0 0 0 0 0 0
0 0 0 0 0 0 0 0 0 0 0 0 0 0 0 0 0 0 1 1 3 6 10 13 14 14 12 9 7 6 5 3 1 0 0 0 0 0 0 0 0 0 0 0 0 0 0 0 0
0 0 0 0 0 0 0 0 0 0 0 0 0 0 0 0 0 0 0 1 1 3 7 10 11 11 10 10 8 7 6 4 1 0 0 0 0 0 0 0 0 0 0 0 0 0 0 0 0
0 0 0 0 0 0 0 0 0 0 0 0 0 0 0 0 0 0 1 1 1 1 5 7 8 8 9 9 9 8 6 4 1 0 0 0 0 0 0 0 0 0 0 0 0 0 0 0 0
0 0 0 0 0 0 0 0 0 0 0 0 0 0 0 0 1 2 2 2 1 2 4 5 6 6 6 5 5 5 4 2 1 0 0 0 0 0 0 0 0 0 0 0 0 0 0 0 0
0 0 0 0 0 0 0 0 0 0 0 0 0 0 0 1 2 3 3 3 3 2 3 4 4 3 3 1 1 1 2 1 0 0 0 0 0 0 0 0 0 0 0 0 0 0 0 0 0
0 0 0 0 0 0 0 0 0 0 0 0 0 0 0 1 2 3 4 4 3 2 2 2 2 1 1 0 0 0 0 1 0 0 0 0 0 0 0 0 0 0 0 0 0 0 0 0 0
0 0 0 0 0 0 0 0 0 0 0 0 0 0 0 1 2 3 3 3 1 1 0 1 1 0 0 0 0 0 0 0 0 0 0 0 0 0 0 0 0 0 0 0 0 0 0 0 0
0 0 0 0 0 0 0 0 0 0 0 0 0 0 0 0 1 1 2 1 0 0 0 0 0 0 0 0 0 0 0 0 0 0 0 0 0 0 0 0 0 0 0 0 0 0 0 0 0
0 0 0 0 0 0 0 0 0 0 0 0 0 0 0 0 0 0 0 0 0 0 0 0 0 0 0 0 0 0 0 0 0 0 0 0 0 0 0 0 0 0 0 0 0 0 0 0 0
0 0 0 0 0 0 0 0 0 0 0 0 0 0 0 0 0 0 0 0 0 0 0 0 0 0 0 0 0 0 0 0 0 0 0 0 0 0 0 0 0 0 0 0 0 0 0 0 0
0 0 0 0 0 0 0 0 0 0 0 0 0 0 0 0 0 0 0 0 0 0 0 0 0 0 0 0 0 0 0 0 0 0 0 0 0 0 0 0 0 0 0 0 0 0 0 0 0
0 0 0 0 0 0 0 0 0 0 0 0 0 0 0 0 0 0 0 0 0 0 0 0 0 0 0 0 0 0 0 0 0 0 0 0 0 0 0 0 0 0 0 0 0 0 0 0 0
0 0 0 0 0 0 0 0 0 0 0 0 0 0 0 0 0 0 0 0 0 0 0 0 0 0 0 0 0 0 0 0 0 0 0 0 0 0 0 0 0 0 0 0 0 0 0 0 0
0 0 0 0 0 0 0 0 0 0 0 0 0 0 0 0 0 0 0 0 0 0 0 0 0 0 0 0 0 0 0 0 0 0 0 0 0 0 0 0 0 0 0 0 0 0 0 0 0
0 0 0 0 0 0 0 0 0 0 0 0 0 0 0 0 0 0 0 0 0 0 0 0 0 0 0 0 0 0 0 0 0 0 0 0 0 0 0 0 0 0 0 0 0 0 0 0 0
Wind_Speed
9 10 8 2 3 5 9 8 6 2 1 2 3 2 2 3 4 7 5 9 15 16 16 15 15 15 15 15 15 14 13 13 13 13 13 13 12 12 12 12 12 12 12 13 13 13 13 13 13
9 8 4 3 5 7 8 9 8 2 3 3 2 2 2 5 8 8 6 11 15 16 15 14 15 15 15 15 15 14 13 13 13 12 12 12 12 12 12 12 12 12 12 12 12 13 12 12 12
10 9 4 4 7 9 6 5 6 2 5 3 1 1 1 5 7 6 8 12 13 14 13 15 15 16 16 15 15 14 13 13 13 13 12 12 12 12 12 12 12 12 12 12 12 12 12 12 11
5 4 5 7 13 10 8 3 3 3 3 2 3 2 4 6 4 8 11 12 13 13 13 14 16 16 16 15 14 14 13 13 13 12 12 12 12 12 12 12 11 11 11 11 11 12 12 11 10
4 4 7 10 14 11 7 3 2 4 5 5 4 3 5 4 8 11 9 11 12 13 14 14 15 16 15 15 14 14 13 13 12 12 12 12 12 12 12 11 11 11 11 11 11 11 11 10 9
4 5 8 12 13 11 8 5 3 4 4 5 5 3 5 5 7 8 8 10 11 13 14 13 15 15 15 15 14 13 12 12 12 12 11 11 11 12 11 11 11 10 11 10 10 10 10 9 8
6 6 11 12 11 10 8 6 5 5 5 5 4 4 6 6 6 7 8 9 11 12 12 11 11 12 14 14 13 13 12 12 12 11 11 11 11 11 11 10 10 10 10 9 9 9 9 8 8
5 5 10 13 12 9 6 5 3 3 3 2 2 3 6 7 6 7 8 9 10 10 11 10 10 10 9 9 12 12 12 11 11 11 10 10 10 10 9 9 9 9 9 9 9 9 8 7 6
5 6 10 11 9 6 4 3 2 2 1 1 2 4 9 12 8 7 8 8 8 9 9 9 9 9 9 8 11 10 10 10 10 9 9 8 5 5 6 7 8 8 8 8 8 7 7 6 4
6 8 11 7 6 5 3 3 2 2 3 2 4 8 12 10 9 9 10 10 9 9 9 8 9 9 8 8 7 6 6 6 6 6 6 4 4 4 5 7 8 7 7 7 6 5 4 3 1
7 9 9 8 6 6 4 2 2 3 5 5 6 10 11 10 9 9 9 10 10 9 8 8 8 8 8 6 6 4 3 4 4 6 5 4 3 4 4 3 4 4 4 3 3 2 1 1 1
9 11 10 7 5 5 5 4 4 6 3 2 5 9 11 11 11 10 10 10 9 9 9 8 7 7 7 6 5 4 3 3 3 4 4 3 2 3 3 3 3 3 2 2 2 1 1 1 1
13 11 10 7 5 5 6 7 6 6 3 2 4 7 9 10 9 9 9 9 9 9 8 8 8 7 6 5 4 4 4 4 4 3 3 3 3 3 3 2 2 2 2 2 1 1 2 1 1
9 10 9 8 7 6 7 7 7 6 3 3 5 7 9 10 10 8 9 9 10 9 8 7 8 8 7 5 4 4 4 3 3 3 3 3 3 3 2 3 2 2 2 2 1 1 2 1 1
8 9 9 10 9 7 6 10 11 7 6 7 7 7 8 9 9 9 10 10 10 10 9 8 7 7 7 6 5 4 4 4 3 3 3 3 3 3 3 3 2 2 2 2 1 2 2 1 2
8 8 9 9 10 8 7 10 9 7 8 9 8 8 8 9 9 8 9 9 9 9 9 8 7 7 7 6 5 4 4 4 3 3 3 3 3 3 3 3 2 2 2 2 1 1 1 1 1
8 9 10 8 11 9 10 9 6 7 9 9 9 9 8 8 9 8 8 9 10 10 9 9 8 7 7 6 5 4 4 4 3 3 2 3 3 3 3 3 2 3 2 2 1 1 1 1 1
10 10 10 10 8 9 11 9 7 7 9 9 9 8 8 9 9 8 8 9 9 9 9 9 8 7 7 5 4 4 4 3 3 3 3 3 3 3 3 3 3 3 2 2 2 2 1 1 1
8 11 11 9 6 9 10 11 10 9 9 9 9 9 9 9 7 7 7 9 8 9 10 10 9 8 7 5 5 4 4 3 3 3 4 3 3 3 3 2 3 2 2 2 3 2 2 1 1
10 10 9 5 5 6 8 11 10 10 10 9 8 9 9 8 8 8 7 8 9 9 9 9 9 8 7 5 4 4 4 3 2 2 3 3 3 3 2 3 2 2 2 2 2 2 2 1 1
10 9 7 5 3 6 6 9 11 10 9 9 9 8 7 8 9 9 8 7 8 8 9 8 8 8 7 7 5 5 3 3 2 2 2 3 3 3 3 3 2 2 2 2 3 3 3 2 1
9 6 6 5 4 4 5 5 7 9 10 10 10 9 7 7 7 8 8 8 8 7 6 7 8 8 7 7 7 7 6 5 4 3 3 3 3 3 3 3 3 2 2 2 2 3 2 3 2
6 4 5 5 4 5 6 5 6 8 9 10 9 9 7 7 7 8 8 7 7 7 6 6 7 7 7 7 7 6 5 4 4 4 5 4 3 3 3 2 2 2 2 2 2 2 2 2 2
3 3 4 3 2 7 9 7 5 5 8 8 7 7 7 6 7 7 6 6 6 6 6 6 7 6 7 7 6 6 6 6 6 5 5 4 3 3 3 3 2 2 2 2 2 2 2 2 2
2 3 2 3 5 7 7 6 4 2 0 3 5 5 4 5 6 6 7 7 7 7 6 6 7 6 6 6 6 6 6 6 6 6 5 4 3 2 3 3 2 2 2 2 2 2 2 2 2
6 5 3 3 4 3 4 6 2 2 5 5 4 4 4 4 4 5 5 6 7 7 7 7 7 6 5 5 5 5 5 4 4 4 4 4 3 3 3 3 2 2 2 2 2 2 2 2 2
4 5 3 3 3 3 4 2 0 4 4 5 4 4 3 4 4 4 4 5 5 6 6 6 6 6 5 5 5 4 4 4 4 4 4 3 3 3 3 3 3 2 2 2 2 2 2 2 2
3 2 1 2 3 3 4 4 2 0 2 3 3 2 2 3 3 3 3 4 4 5 5 5 5 5 5 4 4 4 4 4 4 4 4 4 3 3 3 3 3 2 2 2 2 2 2 2 2
2 3 3 3 3 2 2 1 3 2 3 3 3 3 3 3 3 3 3 3 4 5 5 5 5 5 5 5 5 5 4 4 4 3 4 3 3 2 2 2 3 2 2 2 2 2 2 2 2
1 2 3 3 3 3 1 0 5 5 4 4 3 3 4 4 4 4 4 4 4 4 4 4 4 4 4 4 5 5 4 4 4 3 3 3 3 2 2 2 2 2 2 2 2 3 2 3 3
Wind_Direction
278 262 246 243 235 231 239 240 252 216 177 19 11 358 26 28 46 111 152 126 123 128 134 137 133 132 130 128 125 123 121 117 114 111 107 105 102 99 96 93 92 90 89 87 87 87 85 83 82
275 260 244 233 233 229 233 226 244 227 99 67 15 342 48 71 80 108 129 121 126 128 135 138 133 130 129 128 128 126 123 119 117 113 110 107 104 101 98 96 94 91 89 88 87 88 86 85 83
266 255 234 224 229 229 238 208 201 147 110 128 150 356 40 75 103 117 123 127 127 129 133 132 134 132 130 130 129 128 125 122 119 116 113 109 105 102 99 97 95 94 92 90 88 89 87 86 84
246 228 240 237 237 235 248 263 115 131 130 165 158 122 82 38 70 111 127 132 127 128 127 133 136 134 132 131 129 128 127 126 123 120 117 112 108 104 100 98 97 96 95 92 90 90 87 85 82
239 229 226 235 240 243 244 261 138 170 169 185 192 148 95 63 86 115 134 132 129 127 127 136 135 135 134 133 132 130 129 129 126 123 120 116 112 107 102 100 100 99 97 94 93 91 89 86 80
224 231 228 230 236 234 234 231 215 211 192 183 187 168 105 115 110 128 135 129 126 125 130 136 135 135 136 136 135 133 131 129 126 124 122 118 114 111 106 103 103 100 97 95 95 95 93 88 81
233 237 242 243 238 227 224 216 207 218 208 194 181 147 128 129 129 137 133 126 122 124 131 138 139 138 136 135 135 134 131 128 126 123 121 117 115 114 110 107 106 104 101 97 96 97 94 90 82
250 258 245 246 246 233 214 221 213 240 219 182 189 156 144 143 142 137 128 121 121 127 133 141 142 142 140 135 134 133 132 130 127 124 122 120 117 116 114 110 107 106 105 103 101 99 95 91 83
254 244 239 235 245 247 201 203 223 283 225 154 51 47 117 132 143 132 126 122 126 132 138 145 144 142 140 139 139 136 134 134 132 129 132 133 134 129 122 117 115 114 113 112 110 110 108 103 91
218 233 238 252 272 284 248 197 182 232 215 176 95 88 113 134 146 147 147 145 145 145 145 144 143 141 139 141 142 148 147 147 151 150 155 155 137 128 125 123 123 121 119 120 123 128 135 134 134
218 237 252 268 299 309 289 247 199 220 222 201 160 146 144 150 158 163 161 156 155 151 146 145 143 142 140 140 146 148 148 154 158 154 154 144 135 130 127 129 128 133 138 138 142 152 167 140 121
235 244 254 265 288 293 288 271 231 239 262 277 160 155 157 163 172 173 171 163 156 152 149 147 143 142 143 141 144 143 143 148 146 151 156 145 139 136 139 141 151 154 151 142 147 158 140 117 108
237 243 248 257 267 269 276 266 258 244 259 318 146 160 170 174 177 177 172 163 157 155 152 152 148 144 142 138 144 141 140 143 141 139 148 135 134 137 135 140 139 139 131 136 144 143 115 89 73
240 247 252 255 253 253 253 253 249 239 216 213 188 189 183 183 181 178 173 168 162 159 156 152 150 147 143 140 140 136 134 129 127 131 137 133 130 130 133 125 127 125 127 133 139 130 116 109 87
246 247 246 240 238 238 248 247 236 234 216 212 205 205 194 188 185 184 178 171 164 161 158 155 155 150 147 144 140 131 132 126 125 133 139 132 123 125 123 119 122 122 117 116 108 92 85 89 83
235 233 233 224 222 224 224 243 227 216 217 214 208 206 200 192 190 188 178 167 160 157 156 154 157 155 148 143 140 134 133 128 130 133 135 136 134 130 122 119 123 120 113 107 109 111 98 90 97
213 220 227 228 211 215 223 242 225 211 214 219 212 203 201 197 190 187 177 162 158 157 154 154 157 158 149 143 138 133 129 128 131 126 124 129 127 127 123 128 132 126 125 130 129 114 124 113 93
206 218 226 227 210 215 229 242 236 222 214 219 218 205 200 202 195 180 173 161 156 154 154 156 157 156 146 141 133 121 120 123 123 126 129 125 124 126 124 129 135 133 130 126 121 116 88 103 115
238 227 231 230 219 217 231 239 236 227 217 216 214 208 200 201 190 171 165 160 155 155 157 160 160 158 153 151 148 141 142 138 131 131 131 132 128 130 129 134 139 138 143 152 144 128 110 100 101
252 245 239 239 229 225 237 244 237 227 220 214 216 215 202 190 177 171 165 161 163 162 162 163 162 160 157 155 153 144 136 136 136 132 134 137 135 135 140 132 137 144 142 142 146 133 131 146 126
244 240 237 235 256 249 248 254 235 223 221 216 217 222 206 186 174 170 165 164 161 162 164 165 160 157 152 147 136 128 119 121 129 144 150 149 146 144 137 140 138 144 150 164 167 154 151 168 204
237 239 252 237 216 235 209 255 236 209 212 211 205 210 207 192 173 167 167 167 165 159 155 155 155 154 152 151 152 155 160 164 169 162 155 145 142 138 136 144 150 154 155 163 175 166 165 157 184
240 250 261 253 244 254 219 233 254 204 206 211 205 196 194 190 175 168 166 162 156 149 153 155 154 154 154 156 158 160 162 158 150 151 149 148 151 149 145 149 152 159 169 170 171 173 172 173 176
254 236 251 248 239 240 220 213 264 225 208 201 198 184 181 176 166 161 153 149 147 143 147 150 152 155 157 160 165 166 164 159 154 153 152 153 152 154 156 159 158 166 169 179 183 182 183 187 177
213 174 179 196 209 233 205 207 239 310 359 165 169 163 157 149 146 147 147 152 150 147 148 150 148 151 158 163 167 165 163 161 160 156 154 154 156 159 168 162 162 165 171 181 178 182 195 192 184
214 209 200 207 211 228 199 213 223 34 31 55 86 100 110 114 121 130 146 150 151 151 150 151 151 152 155 158 159 155 151 152 153 150 148 152 155 157 151 153 153 163 170 183 179 190 200 195 197
215 223 266 293 268 226 211 205 358 40 40 43 54 75 95 111 106 124 134 143 148 149 151 152 151 149 152 149 143 143 141 140 140 136 132 135 139 144 147 154 159 168 177 194 186 192 207 198 201
258 258 242 228 240 237 211 194 220 79 59 59 57 75 85 98 109 119 126 137 141 140 142 143 145 145 142 136 136 134 131 131 128 125 130 135 138 141 147 155 163 172 180 193 197 201 209 200 210
205 218 238 243 258 247 215 165 16 90 95 89 60 57 76 73 77 97 103 108 112 119 126 132 137 133 131 130 127 122 119 117 118 124 129 130 127 130 136 155 161 171 183 190 197 211 209 211 216
233 236 227 219 251 253 236 292 17 34 46 64 55 46 69 74 76 77 81 82 88 97 104 112 114 117 125 128 123 120 118 119 123 126 124 124 128 129 137 149 154 172 185 189 196 215 218 214 216